Waarnemingen

Advertentie
Mijn weer
List/Sylt, Duitsland (10020): temperatuur & dauwpunt: 16.01.2018 21:00:00 - 22.01.2018 21:00:00 (CET)List/Sylt, Duitsland (10020): temperatuur 5cm & temperatuur -5cm: 16.01.2018 21:00:00 - 22.01.2018 21:00:00 (CET)List/Sylt, Duitsland (10020): temperatuur -20cm: 16.01.2018 21:00:00 - 22.01.2018 21:00:00 (CET)List/Sylt, Duitsland (10020): windsnelheid & windstoten: 16.01.2018 21:00:00 - 22.01.2018 21:00:00 (CET)List/Sylt, Duitsland (10020): windrichting: 16.01.2018 21:00:00 - 22.01.2018 21:00:00 (CET)List/Sylt, Duitsland (10020): luchtdruk: 16.01.2018 21:00:00 - 22.01.2018 21:00:00 (CET)List/Sylt, Duitsland (10020): zicht: 16.01.2018 21:00:00 - 22.01.2018 21:00:00 (CET)List/Sylt, Duitsland (10020): Zonneschijnduur: 16.01.2018 21:00:00 - 22.01.2018 21:00:00 (CET)List/Sylt, Duitsland (10020): neerslag: 16.01.2018 21:00:00 - 22.01.2018 21:00:00 (CET)
Datum & Tijd tt [°C] td [°C] tt 5cm [°C] tt -5cm [°C] tt -20cm [°C] ff [km/u] ff [kn] fx [km/u] fx [kn] dd ppp [hPa] vv [km] sd [min] rr [mm]
22.01.2018 21:00:00 - - - - - - - - - - - - - -
22.01.2018 20:00:00 0,7 0,3 0,6 1,6 1,8 16 9 23 13 ZO 1010,1 2,3 0 0,0
22.01.2018 19:00:00 0,7 0,2 0,6 1,6 1,8 14 8 24 13 ZO 1009,6 4,1 0 0,0
22.01.2018 18:00:00 0,7 0,2 0,5 1,6 1,8 18 10 29 16 ZO 1008,6 4,4 0 0,0
22.01.2018 17:00:00 0,6 0,2 0,5 1,6 1,8 19 11 26 14 ZO 1007,5 3,8 0 0,0
22.01.2018 16:00:00 0,5 0,2 0,5 1,6 1,8 20 11 29 16 OZO 1007,1 3,6 0 0,0
22.01.2018 15:00:00 0,5 0,2 0,6 1,6 1,8 18 10 29 16 OZO 1006,5 3,2 0 0,0
22.01.2018 14:00:00 0,4 0,1 0,6 1,5 1,8 23 12 34 18 OZO 1006,5 2,0 0 0,0
22.01.2018 13:00:00 0,3 -0,2 0,4 1,5 1,8 27 15 34 18 OZO 1006,2 2,4 0 0,0
22.01.2018 12:00:00 0,3 -0,4 0,4 1,5 1,8 23 12 39 21 OZO 1006,4 4,9 0 0,0
22.01.2018 11:00:00 0,3 -0,5 0,1 1,4 1,8 25 13 39 21 OZO 1006,3 6 0 0,0
22.01.2018 10:00:00 0,2 -0,6 0,1 1,4 1,8 29 16 43 23 ZO 1006,3 6 0 0,0
22.01.2018 09:00:00 0,2 -0,6 0,0 1,4 1,8 29 16 42 23 ZO 1006,7 6 0 0,0
22.01.2018 08:00:00 0,2 -0,4 0,1 1,4 1,8 30 16 46 25 ZO 1006,6 6 0 0,0
22.01.2018 07:00:00 0,2 -0,3 0,1 1,4 1,8 29 16 41 22 ZO 1006,8 4,4 0 0,0
22.01.2018 06:00:00 0,2 -0,2 0,1 1,4 1,8 28 15 41 22 ZO 1007,5 3,3 0 0,0
22.01.2018 05:00:00 0,2 -0,2 0,1 1,4 1,8 29 16 40 22 ZO 1008,2 2,4 0 0,0
22.01.2018 04:00:00 0,4 0,2 0,1 1,5 1,8 28 15 41 22 ZO 1009,1 3,4 0 0,2
22.01.2018 03:00:00 0,3 -0,1 0,1 1,5 1,8 28 15 42 23 ZZO 1009,8 1,4 0 0,0
22.01.2018 02:00:00 0,6 -0,1 0,3 1,5 1,9 29 16 41 22 ZZO 1010,5 6 0 0,0
22.01.2018 01:00:00 0,5 -0,1 0,2 1,5 1,9 31 17 41 22 ZZO 1010,9 6 0 0,0
22.01.2018 00:00:00 0,4 -0,1 0,3 1,5 1,9 27 14 40 22 ZO 1011,9 3,9 0 0,0
21.01.2018 23:00:00 0,6 0,1 0,4 1,5 1,9 28 15 40 21 ZZO 1012,7 4,6 0 0,0
21.01.2018 22:00:00 0,2 -0,1 0,1 1,5 1,9 25 13 36 20 ZO 1013,1 3,8 0 0,0
21.01.2018 21:00:00 0,0 0,0 0,1 1,6 1,9 25 13 41 22 ZO 1013,8 2,0 0 0,0
21.01.2018 20:00:00 0,0 0,0 0,1 1,6 1,9 29 16 39 21 ZZO 1014,5 2,4 0 0,0
21.01.2018 19:00:00 0,1 0,1 0,2 1,6 1,9 19 11 30 16 ZO 1014,8 0,2 0 0,0
21.01.2018 18:00:00 -0,1 -0,1 0,0 1,6 1,9 19 10 30 16 ZO 1014,9 0,3 0 0,0
21.01.2018 17:00:00 -0,6 -0,6 -0,3 1,7 1,9 16 8 26 14 ZZO 1015,5 0,1 0 0,0
21.01.2018 16:00:00 -0,2 -0,2 0,0 1,8 1,9 16 9 22 12 ZZO 1015,3 0,2 0 0,0
21.01.2018 15:00:00 0,2 0,2 0,7 1,8 1,8 14 8 21 12 ZO 1014,9 0,4 0 0,0
21.01.2018 14:00:00 0,2 0,2 0,9 1,6 1,8 16 8 21 12 O 1014,7 0,2 0 0,0
21.01.2018 13:00:00 0,2 0,1 1,1 1,4 1,8 15 8 21 11 O 1014,2 0,2 0 0,0
21.01.2018 12:00:00 0,1 0,0 0,6 1,3 1,8 14 7 20 11 O 1014,1 0,1 0 0,0
21.01.2018 11:00:00 -0,1 -0,3 0,1 1,3 1,8 13 7 21 12 O 1013,3 0,1 0 0,0
21.01.2018 10:00:00 -0,2 -0,6 -0,1 1,3 1,8 15 8 19 10 OZO 1012,5 0,2 0 0,0
21.01.2018 09:00:00 0,2 -0,3 -1,3 1,4 1,8 11 6 16 9 O 1011,5 2,2 0 0,0
21.01.2018 08:00:00 0,3 -0,3 -0,9 1,4 1,9 12 7 16 9 O 1010,3 2,6 0 0,0
21.01.2018 07:00:00 0,6 -0,3 -0,2 1,4 1,9 13 7 19 10 O 1009,2 4,0 0 0,0
21.01.2018 06:00:00 0,7 -0,2 -0,5 1,5 1,9 12 7 17 9 O 1008,4 4,8 0 0,0
21.01.2018 05:00:00 1,3 0,2 0,3 1,5 1,9 16 8 26 14 O 1007,1 5 0 0,0
21.01.2018 04:00:00 1,4 0,1 0,8 1,5 1,9 21 11 27 15 OZO 1006,2 7 0 0,0
21.01.2018 03:00:00 1,3 0,5 0,8 1,5 1,9 20 11 27 14 O 1005,4 4,4 0 0,0
21.01.2018 02:00:00 1,1 0,5 0,6 1,5 1,9 22 12 29 15 OZO 1004,1 3,8 0 0,0
21.01.2018 01:00:00 0,8 0,2 0,3 1,5 2,0 19 11 27 15 OZO 1003,4 3,9 0 0,0
21.01.2018 00:00:00 0,9 0,1 0,0 1,5 2,0 18 10 28 15 ZO 1002,7 7 0 0,0
20.01.2018 23:00:00 0,9 0,3 0,1 1,6 2,0 17 9 26 14 ZO 1001,9 6 0 0,0
20.01.2018 22:00:00 1,4 0,7 0,3 1,7 2,1 16 9 27 15 ZO 1001,5 6 0 0,0
20.01.2018 21:00:00 1,6 0,8 1,0 1,7 2,1 17 9 24 13 ZZO 1001,2 11 0 0,0
20.01.2018 20:00:00 1,8 0,8 0,8 1,8 2,1 17 9 32 17 Z 1000,7 13 0 0,0
20.01.2018 19:00:00 1,9 1,1 0,8 1,8 2,1 23 13 31 17 Z 1000,3 9 0 0,0
20.01.2018 18:00:00 2,2 1,4 1,0 1,9 2,1 27 14 34 18 Z 1000,1 11 0 0,0
20.01.2018 17:00:00 2,1 1,2 0,9 2,0 2,1 23 13 30 16 ZZO 999,8 33 0 0,0
20.01.2018 16:00:00 1,9 0,9 0,8 2,2 2,1 22 12 28 15 Z 999,7 54 3 0,0
20.01.2018 15:00:00 2,1 0,6 1,8 2,3 2,0 13 7 33 18 ZZW 1000,0 58 13 0,0
20.01.2018 14:00:00 2,6 1,9 3,4 2,0 1,9 25 14 36 19 Z 999,8 13 0 0,1
20.01.2018 13:00:00 2,4 1,7 3,0 1,7 1,8 24 13 33 18 Z 1000,5 9 15 0,0
20.01.2018 12:00:00 1,7 1,0 1,8 1,4 1,8 25 14 31 17 ZZO 1001,1 34 22 0,0
20.01.2018 11:00:00 1,4 1,0 0,9 1,4 1,8 19 10 39 21 Z 1001,3 70 0 0,0
20.01.2018 10:00:00 0,6 0,2 0,1 1,4 1,8 27 15 42 23 ZZW 1001,4 16 0 1,0
20.01.2018 09:00:00 1,8 0,5 0,9 1,4 1,8 24 13 42 23 ZZW 1001,5 30 0 0,0
20.01.2018 08:00:00 2,0 0,9 0,9 1,4 1,8 27 14 35 19 ZZW 1001,2 34 0 0,0
20.01.2018 07:00:00 2,0 0,9 1,1 1,4 1,9 18 10 24 13 Z 1001,6 36 0 0,0
20.01.2018 06:00:00 1,6 1,0 0,4 1,4 1,9 15 8 30 16 Z 1001,7 50 0 0,3
20.01.2018 05:00:00 1,8 1,1 0,9 1,5 1,9 16 9 31 17 Z 1002,1 38 0 0,4
20.01.2018 04:00:00 2,5 0,1 0,7 1,5 1,9 25 13 37 20 ZW 1002,3 67 0 0,0
20.01.2018 03:00:00 2,0 1,0 0,5 1,5 1,9 14 7 22 12 ZZO 1002,7 42 0 0,0
20.01.2018 02:00:00 1,3 0,7 0,3 1,5 2,0 13 7 21 12 ZO 1002,8 48 0 0,7
20.01.2018 01:00:00 0,9 0,4 0,2 1,5 2,0 14 8 19 10 ZO 1003,1 4,9 0 0,7
20.01.2018 00:00:00 0,6 0,3 0,0 1,6 2,0 3 2 24 13 WZW 1003,2 55 0 1,5
19.01.2018 23:00:00 1,6 0,8 1,0 1,6 2,0 16 9 34 18 WNW 1003,3 8 0 0,2
19.01.2018 22:00:00 2,3 1,1 1,0 1,6 2,0 16 9 21 11 Z 1003,0 33 0 0,0
19.01.2018 21:00:00 2,3 1,0 1,2 1,7 2,0 15 8 21 11 Z 1002,9 26 0 0,0
19.01.2018 20:00:00 2,3 0,9 1,0 1,7 2,0 11 6 32 18 WZW 1002,8 61 0 0,1
19.01.2018 19:00:00 2,5 1,0 1,4 1,7 2,0 16 9 24 13 ZZW 1002,7 70 0 0,0
19.01.2018 18:00:00 2,1 0,7 1,0 1,7 2,0 18 10 24 13 ZW 1002,5 70 0 0,1
19.01.2018 17:00:00 2,0 1,4 1,2 1,8 2,0 13 7 20 11 ZZW 1002,6 60 0 0,0
19.01.2018 16:00:00 2,0 1,4 1,5 1,8 1,9 14 7 18 10 Z 1002,5 40 0 0,1
19.01.2018 15:00:00 2,0 1,4 2,1 1,7 1,9 11 6 19 11 Z 1002,4 23 0 0,4
19.01.2018 14:00:00 1,3 0,7 1,2 1,6 1,9 16 9 34 18 W 1002,4 21 0 0,8
19.01.2018 13:00:00 4,0 1,8 4,8 1,4 1,9 8 5 21 11 ZW 1002,2 59 25 0,0
19.01.2018 12:00:00 2,7 1,1 2,5 1,4 1,9 17 9 29 15 NW 1002,4 40 12 0,0
19.01.2018 11:00:00 3,2 1,5 3,0 1,3 1,9 19 10 28 15 ZW 1001,8 32 49 0,0
19.01.2018 10:00:00 2,6 1,2 1,0 1,4 1,9 11 6 13 7 ZZW 1001,4 46 26 0,0
19.01.2018 09:00:00 2,2 1,2 -0,6 1,4 2,0 7 4 10 5 Z 1001,0 54 0 0,0
19.01.2018 08:00:00 2,1 0,7 -0,1 1,5 2,0 9 5 16 8 ONO 1000,4 70 0 0,0
19.01.2018 07:00:00 2,2 1,3 0,0 1,5 2,0 6 3 12 6 ZO 999,8 70 0 0,0
19.01.2018 06:00:00 2,2 1,2 -0,8 1,6 2,0 5 3 13 7 Z 999,5 70 0 0,0
19.01.2018 05:00:00 2,3 1,1 1,5 1,6 2,1 11 6 24 13 WNW 999,0 28 0 0,1
19.01.2018 04:00:00 2,3 0,8 1,2 1,6 2,1 21 12 31 17 W 998,5 42 0 0,0
19.01.2018 03:00:00 1,8 0,4 0,1 1,6 2,1 13 7 36 19 W 998,2 66 0 0,0
19.01.2018 02:00:00 2,3 1,1 1,4 1,7 2,2 21 11 33 18 W 997,8 57 0 0,0
19.01.2018 01:00:00 2,0 0,3 0,4 1,7 2,2 14 8 27 14 W 997,6 70 0 0,0
19.01.2018 00:00:00 2,2 0,9 0,8 1,8 2,2 23 13 30 16 W 997,0 63 0 0,0
18.01.2018 23:00:00 1,5 0,7 -0,7 1,8 2,2 8 5 35 19 WNW 996,9 63 0 0,3
18.01.2018 22:00:00 2,5 1,2 1,8 1,9 2,3 21 11 40 21 WNW 996,4 6 0 0,8
18.01.2018 21:00:00 1,8 1,3 0,3 2,0 2,3 11 6 14 8 ZW 995,5 54 0 0,1
18.01.2018 20:00:00 2,3 1,5 1,0 2,1 2,3 8 4 12 6 ZW 995,0 17 0 0,0
18.01.2018 19:00:00 2,7 1,7 1,9 2,1 2,3 8 5 16 8 WNW 994,3 56 0 0,0
18.01.2018 18:00:00 2,7 1,5 2,1 2,2 2,3 14 8 23 12 NW 993,4 70 0 0,0
18.01.2018 17:00:00 2,6 1,8 2,1 2,2 2,3 18 10 29 16 NW 992,3 21 0 0,0
18.01.2018 16:00:00 2,1 1,4 1,8 2,2 2,2 27 14 34 19 NW 991,0 15 0 0,0
18.01.2018 15:00:00 2,0 1,5 2,1 2,2 2,2 25 14 33 18 NNW 989,5 4,2 0 0,0
18.01.2018 14:00:00 1,7 1,2 1,9 2,1 2,1 25 13 32 18 N 987,4 4,7 0 0,2
18.01.2018 13:00:00 1,3 1,2 1,5 1,9 2,1 26 14 32 18 NNO 985,8 4,6 0 0,1
18.01.2018 12:00:00 0,8 0,4 0,8 1,9 2,1 20 11 30 16 NO 985,0 3,0 0 0,4
18.01.2018 11:00:00 1,3 0,8 1,2 1,9 2,1 19 11 27 15 O 984,7 4,6 0 0,2
18.01.2018 10:00:00 1,3 0,7 1,2 1,9 2,1 21 12 34 18 ZO 985,1 7 0 0,0
18.01.2018 09:00:00 2,0 1,4 1,7 1,8 2,0 27 15 44 24 ZZO 986,0 10 0 0,4
18.01.2018 08:00:00 2,3 1,7 2,0 1,8 2,0 21 11 40 21 ZZO 987,4 7 0 0,5
18.01.2018 07:00:00 2,6 1,0 1,8 1,7 2,0 22 12 33 18 Z 989,3 23 0 0,0
18.01.2018 06:00:00 3,3 1,3 2,0 1,7 2,0 27 14 43 23 ZZW 990,6 35 0 0,0
18.01.2018 05:00:00 3,6 1,6 2,2 1,6 2,0 27 14 35 19 ZZW 992,1 24 0 0,0
18.01.2018 04:00:00 3,3 0,5 1,7 1,6 2,0 23 13 46 25 ZW 993,2 32 0 0,0
18.01.2018 03:00:00 3,2 1,5 1,5 1,6 2,0 23 12 35 19 ZW 994,2 29 0 0,0
18.01.2018 02:00:00 3,2 1,4 1,4 1,7 2,0 19 10 40 22 ZZW 994,7 35 0 0,0
18.01.2018 01:00:00 3,0 0,3 1,1 1,7 2,0 20 11 52 28 W 995,5 35 0 0,0
18.01.2018 00:00:00 3,1 0,8 2,0 1,7 2,0 38 21 56 31 W 995,7 10 0 0,2
17.01.2018 23:00:00 3,9 1,6 2,2 1,7 2,0 18 10 26 14 W 995,2 26 0 0,0
17.01.2018 22:00:00 3,4 1,2 2,0 1,7 2,0 21 11 38 21 W 995,3 34 0 0,0
17.01.2018 21:00:00 3,0 1,2 1,5 1,7 2,0 24 13 48 26 W 994,8 32 0 0,3
17.01.2018 20:00:00 3,3 0,9 2,0 1,7 2,0 31 17 46 25 W 994,4 38 0 0,2
17.01.2018 19:00:00 3,4 1,2 2,2 1,7 2,0 29 16 52 28 W 994,0 36 0 0,0
17.01.2018 18:00:00 3,5 1,3 2,2 1,7 2,0 37 20 54 29 W 993,0 29 0 0,0
17.01.2018 17:00:00 3,1 0,4 1,3 1,7 2,0 25 13 45 24 W 992,9 49 4 0,0
17.01.2018 16:00:00 2,7 -0,7 1,3 1,8 2,0 29 16 56 30 W 991,7 11 36 0,0
17.01.2018 15:00:00 3,5 1,2 2,6 1,7 2,0 28 15 41 22 WZW 990,8 25 9 0,0
17.01.2018 14:00:00 2,6 0,7 1,9 1,7 2,0 31 17 39 21 WZW 990,3 47 6 0,0
17.01.2018 13:00:00 2,6 1,0 3,3 1,6 2,0 20 11 29 15 WZW 989,7 13 20 0,1
17.01.2018 12:00:00 1,0 0,7 0,1 1,6 2,0 16 9 30 16 W 989,7 25 0 0,3
17.01.2018 11:00:00 0,4 -0,1 0,1 1,6 2,0 23 12 43 23 W 989,1 8 0 0,6
17.01.2018 10:00:00 0,8 0,1 0,1 1,6 2,1 16 9 24 13 WZW 988,5 39 0 0,0
17.01.2018 09:00:00 0,6 0,4 0,1 1,6 2,1 9 5 16 9 WZW 987,5 25 0 0,1
17.01.2018 08:00:00 0,4 0,4 0,1 1,6 2,1 8 4 26 14 W 986,9 5 0 1,3
17.01.2018 07:00:00 1,5 0,4 -0,5 1,7 2,1 8 4 23 12 WNW 985,8 49 0 0,0
17.01.2018 06:00:00 1,8 0,0 0,7 1,7 2,1 13 7 41 22 W 985,5 49 0 0,1
17.01.2018 05:00:00 0,8 0,3 0,1 1,7 2,2 12 6 42 23 W 984,9 59 0 0,6
17.01.2018 04:00:00 1,9 0,0 0,3 1,7 2,2 15 8 21 11 ZW 984,8 40 0 0,0
17.01.2018 03:00:00 2,2 0,9 0,7 1,8 2,2 13 7 28 15 Z 984,8 41 0 0,1
17.01.2018 02:00:00 1,4 0,1 -0,5 1,8 2,3 14 8 46 25 ZW 984,8 41 0 0,0
17.01.2018 01:00:00 2,5 0,4 1,4 1,9 2,3 32 17 50 27 WZW 984,8 38 0 0,4
17.01.2018 00:00:00 1,7 0,9 0,8 1,9 2,3 13 7 21 12 Z 985,3 7 0 1,0
16.01.2018 23:00:00 1,6 1,0 1,0 2,0 2,4 14 7 32 18 ZZW 985,4 27 0 0,2
16.01.2018 22:00:00 1,8 1,0 1,2 2,1 2,4 13 7 39 21 W 984,9 32 0 0,2
16.01.2018 21:00:00 2,3 1,1 1,5 2,1 2,4 18 10 39 21 W 985,1 30 0 0,3

tt = temperatuur
td = dauwpunt
tt 5cm = temperatuur 5cm
tt -5cm = temperatuur -5cm
tt -20cm = temperatuur -20cm
ff = windsnelheid
fx = windstoten
dd = windrichting
ppp = luchtdruk
vv = zicht
sd = Zonneschijnduur
rr = neerslag

Weerstations in de omgeving